Tracking 29606 objects as of 19-Sep-2024
HD Live streaming from Space Station
objects crossing your sky now

STARLINK-31562

Track STARLINK-31562 now!
10-day predictions
STARLINK-31562 is classified as:


NORAD ID: 59340
Int'l Code: 2024-057W
Perigee: 449.9 km
Apogee: 452.4 km
Inclination: 43.0 °
Period: 93.5 minutes
Semi major axis: 6822 km
RCS: Unknown
Launch date: March 25, 2024
Source: United States (US)
Launch site: AIR FORCE EASTERN TEST RANGE (AFETR)
Your satellite tracking list
Your tracking list is empty




NASA's NSSDC Master Catalog

Two Line Element Set (TLE):
1 59340U 24057W   24262.31535746  .00001384  00000-0  40374-4 0  9997
2 59340  43.0044  13.1305 0001803 282.0543  78.0112 15.40710120 27297
Source of the keplerian elements: AFSPC